Location: Unspecified
(51.0459°N, 0.0000°E)
Time: 13:40:25
(UTC+00:00)

ISS - Pass Details

Date: 29 May 2019
Orbit: 407 x 418 km, 51.6° (Epoch: 24 June)

Event Time Altitude Azimuth Distance (km) Brightness Sun altitude
Rises 21:15:09 0° 284° (WNW) 2,357 1.0 -9.0°
Reaches altitude 10° 21:17:16 10° 281° (W) 1,495 -0.2 -9.2°
Maximum altitude 21:20:34 61° 200° (SSW) 477 -3.7 -9.5°
Enters shadow 21:23:30 13° 121° (ESE) 1,337 -1.8 -9.8°
